Simultaneous Nadir Overpasses (SNOs) Predictions

Prediction of SNOs between METOP-A and TERRA Satellite Orbit:

Table of predicted SNOs for the next 14.0 days since TLE Epoch: 3/17/2018
Index Date (METOP-A) Time (METOP-A) Lat,Lon (METOP-A) SZA (METOP-A ) Date (TERRA) Time (TERRA) Lat,Lon (TERRA) SZA (TERRA ) Distance(km) Time Diff (sec)
1 03/19/2018 16:33:03 -81.40, 160.98 95.47 03/19/2018 16:34:15 -81.41, 160.89 95.44 1.58 72
2 03/19/2018 17:23:43 81.40, -31.36 84.56 03/19/2018 17:23:41 81.41, -31.38 84.56 0.89 2
3 03/19/2018 18:14:05 -81.36, 143.34 94.63 03/19/2018 18:12:51 -81.67, 143.03 94.52 34.57 74
4 03/22/2018 12:07:19 -81.40,-132.65 96.56 03/22/2018 12:08:33 -81.40,-132.73 96.53 1.35 74
5 03/22/2018 12:57:59 81.40, 34.96 83.46 03/22/2018 12:57:59 81.41, 34.98 83.47 0.69 0
6 03/22/2018 13:48:39 -81.40,-157.41 96.52 03/22/2018 13:47:26 -81.41,-157.38 96.55 0.76 73
7 03/25/2018 08:32:16 81.40, 101.26 82.37 03/25/2018 08:32:19 81.41, 101.46 82.40 3.31 3
8 03/25/2018 09:22:56 -81.40, -91.06 97.61 03/25/2018 09:21:46 -81.41, -90.88 97.62 3.11 70
9 03/28/2018 04:06:33 81.40, 167.55 81.28 03/28/2018 04:06:41 81.40, 167.64 81.29 1.56 8
10 03/28/2018 04:57:13 -81.40, -24.74 98.69 03/28/2018 04:56:08 -81.40, -24.68 98.72 0.95 65
11 03/30/2018 23:40:49 81.40,-125.79 80.24 03/30/2018 23:41:03 81.41,-125.68 80.27 2.04 14




NCC Satellite Simultaneous Nadir Overpasses (SNOs) Prediction Service
